{"data":{"norad_id":58072,"intl_designator":"2023-158X","name":"STARLINK-30506","alt_names":[],"object_type":"PAYLOAD","status":"ACTIVE","operator":null,"country":"US","launch_date":"2023-10-13","launch_site_code":"AFETR","launch_vehicle":null,"mission":null,"orbit_class":"UNKNOWN","rcs_meters":null,"size_class":null,"mass_kg":null,"dimensions":null,"purposes":["comms"],"wikipedia_slug":null,"has_3d_model":false,"image_url":null,"decayed_at":null,"tle_current":{"epoch":"2026-05-24T20:02:48.643872Z","epoch_age_seconds":85304,"freshness":"FRESH","line1":"1 58072U 23158X   26144.83528523  .00007149  00000+0  26903-3 0  9997","line2":"2 58072  43.0013 317.1627 0001256 271.0846  88.9862 15.27584034145217","mean_motion":15.27584034,"eccentricity":0.0001256,"inclination_deg":43.0013,"raan_deg":317.1627,"arg_perigee_deg":271.0846,"mean_anomaly_deg":88.9862,"bstar":0.00026903,"rev_number":14521,"period_min":94.266499776732,"perigee_km":482.1752533625,"apogee_km":483.89878027552,"semimajor_km":6861.174016819,"source":"CELESTRAK","updated_at":"2026-05-25T13:38:18.503326Z"}}}